Regional Weather Roundup
Issued by NWS Wilmington, NC

Home | Current Version | Previous Version | Text Only | Print | Product List | Glossary On
Versions: 1 2 3 4 5 6 7 8 9 10 11 12 13 14 15 16 17 18 19 20 21 22 23 24 25 26 27
000
ASUS42 KILM 010213
RWRILM
RWRILM
REGIONAL HOURLY WEATHER ROUNDUP
NATIONAL WEATHER SERVICE WILMINGTON NC
1000 PM EDT SUN APR 30 2017

NOTE: "FAIR" INDICATES FEW OR NO CLOUDS BELOW 12,000 FEET WITH NO
SIGNIFICANT WEATHER AND/OR OBSTRUCTIONS TO VISIBILITY.

...............WFO WILMINGTON COUNTY WARNING AREA...............

......COASTAL NC AND SC COUNTIES......

CITY           SKY/WX    TMP DP  RH WIND       PRES   REMARKS
WILMINGTON     PTCLDY    73  69  87 S10       30.17R
N MYRTLE BEACH MOCLDY    75  71  87 S12       30.16R
MYRTLE BEACH   NOT AVBL

......INLAND NC AND SC COUNTIES.......

CITY           SKY/WX    TMP DP  RH WIND       PRES   REMARKS
LUMBERTON      CLEAR     73  68  84 S10       30.12S
ELIZABETHTOWN  CLEAR     73  68  83 S6        30.16R
WHITEVILLE     CLEAR     73  68  86 S5        30.16R
FLORENCE       CLEAR     74  68  81 S8        30.12R
DARLINGTON     CLEAR     75  67  76 S12       30.11S
KINGSTREE      FAIR      72  66  83 SE7       30.13S
HARTSVILLE     FAIR      72  64  78 S10G16    30.10S
BENNETTSVILLE  FAIR      75  68  78 SE7       30.11R
CONWAY         FAIR      72  68  88 S5        30.16R
GEORGETOWN     CLOUDY    72  70  94 S6        30.18R
MARION         FAIR      72  64  78 S9        30.15R

....................REST OF NORTH CAROLINA......................

.........EASTERN NC.........

CITY           SKY/WX    TMP DP  RH WIND       PRES   REMARKS
CAPE HATTERAS  CLEAR     74  69  85 SW13      30.18R HAZE
JACKSONVILLE   CLEAR     72  69  90 S9        30.17R
MOREHEAD CITY  CLEAR     74  73  97 S10       30.19R
KENANSVILLE    CLEAR     73  66  78 S5        30.16R
NEW BERN       CLEAR     72  70  93 S9        30.18R
ELIZABETH CITY CLEAR     75  70  84 S10       30.13R

.........CENTRAL NC.........

CITY           SKY/WX    TMP DP  RH WIND       PRES   REMARKS
RALEIGH DURHAM MOCLDY    72  68  87 SE6       30.10S
ROCKY MOUNT    CLEAR     74  63  68 S8        30.11S
ROANOKE RAPIDS NOT AVBL
FAYETTEVILLE   CLEAR     75  67  76 S12G21    30.12R
HOFFMAN        CLEAR     74  62  65 S12       30.10S

.........WESTERN NC.........

CITY           SKY/WX    TMP DP  RH WIND       PRES   REMARKS
CHARLOTTE      CLOUDY    74  65  73 S15       30.07S
GREENSBORO     CLOUDY    73  68  84 S10       30.08S
HICKORY        NOT AVBL
BOONE          NOT AVBL
ASHEVILLE      NOT AVBL

.....................REST OF SOUTH CAROLINA.....................

.........EASTERN SC.........

CITY           SKY/WX    TMP DP  RH WIND       PRES   REMARKS
CHARLESTON     PTCLDY    74  69  85 S10       30.13S
BEAUFORT MCAS  PTCLDY    76  72  87 S8        30.10F
HILTON HEAD    CLEAR     75  72  88 SE13G18   30.12S

.........CENTRAL SC.........

CITY           SKY/WX    TMP DP  RH WIND       PRES   REMARKS
COLUMBIA       CLEAR     77  66  68 S12       30.08R
ORANGEBURG     CLEAR     74  67  78 S10       30.10R
SUMTER SHAW    CLEAR     74  67  78 S9        30.08S

.........WESTERN SC.........

CITY           SKY/WX    TMP DP  RH WIND       PRES   REMARKS
GREENVILLE     NOT AVBL
ROCK HILL      PTCLDY    74  65  73 S5        30.08R
ANDERSON       CLOUDY    75  67  76 SE7       30.03S
CLEMSON        NOT AVBL
GREENWOOD      CLOUDY    75  64  68 S12       30.06S


...................COASTAL AND OFFSHORE REPORTS..................

................LOCAL PIERS AND NC RESERVE................


STATION/POSITION TIME  SKY/WX   TEMP    WIND        PRES    VSBY
                                AIR SEA DIR/SP/G
                 (UTC)          (F)     (DEG/KT/KT) (MB)    (MI)
JOHNY MRCER PIER 0142            73 72  180/ 12/ 13 1020.7R
NC RESRV MASNBRO 0045            72     230/  4     1022.0
OCEAN CREST PIER NOT AVBL
SPRINGMAID  PIER 0142                               1020.7R


................COASTAL AND OFFSHORE BUOYS................


STATION/POSITION TIME  SKY/WX   TEMP    WIND        PRES    VSBY
                                AIR SEA DIR/SP/G
                 (UTC)          (F)     (DEG/KT/KT) (MB)    (MI)
DIMNDSHOAL 41025 0150            76 75  200/ 17/ 21 1022.1S
WVE H/P(F/S)=  3/ 5 SWL H/P/D(F/S/D)=  2/140/ 9

CAPE LOOKOUT     0200            74     190/ 11/ 13 1022.0S
ONSLOW BAY 41036 NOT AVBL
ONSLOW BAY 41064 0108            74     190/ 10/ 14 1022.3S
ONSLOW BAY 41159 0143               74                N/A
WVE H/P(F/S)=  4/ 5

MASNBO INL 41110 0159               72                N/A
WVE H/P(F/S)=  3/ 5

WILM HARBR 41108 0147               74                N/A
WVE H/P(F/S)=  3/ 6

27SE WRITB 41037 0108            75 74  180/ 12/ 16 1021.2F
FRYING PAN 41013 0150            76 75  170/ 14/ 17 1021.8R
WVE H/P(F/S)=  4/ 6 SWL H/P/D(F/S/D)=  2/190/11

SUNST NRSH 41024 0108            74 76  190/ 10/ 14 1020.9S
CAPRS NRSH 41029 0108            78 76  190/ 12/ 17 1020.6R
EDISTO     41004 0150            76 76  180/ 12/ 14 1021.0R
WVE H/P(F/S)=  5/ 7 SWL H/P/D(F/S/D)=  3/140/ 7



..........OFFSHORE BUOYS BEYOND 100 NM OFFSHORE...........
.....IN A TRIANGLE---HAT TO BERMUDA TO BAHAMAS TO HAT.....


STATION/POSITION TIME  SKY/WX   TEMP    WIND        PRES    VSBY
                                AIR SEA DIR/SP/G
                 (UTC)          (F)     (DEG/KT/KT) (MB)    (MI)
150E HAT   41001 0200            74 74  210/ 10/ 12 1024.5
W BERMUDA  41048 0150            72 73  180/  2/  2 1026.3F
WVE H/P(F/S)=  3/ 7 SWL H/P/D(F/S/D)=  3/160/ 7

ATLANTIC S 41049 0150            72 74   50/ 10/ 12 1026.0R
WVE H/P(F/S)=  4/ 7 SWL H/P/D(F/S/D)=  3/110/ 7

E BAHAMAS  41046 0150            76 77   80/ 17/ 23 1022.0R
WVE H/P(F/S)=  6/ 8

NE BAHAMAS 41047 0200            75 76  110/ 14/ 16 1024.5
120E CANVRL41010 0150            76 76  130/ 14/ 17 1021.5R
WVE H/P(F/S)=  7/ 8 SWL H/P/D(F/S/D)=  3/120/ 8


END




USA.gov is the U.S. government's official web portal to all federal, state and local government web resources and services.